Notices

What's New in latest Release from April 7th, 2021:

- Updated Glossary, including Speed of Maximum Gust, and Total Hourly Precipitation

- Updated national and regional climate services offices contacts and prices information

- Addition of station inventory lists for 1981-2010, 1971-2000, and 1961-1990 Normals.

If you haven't already, please take our survey and provide feedback about our website: https://eccc.sondage-survey.ca/f/LanguageSelection.aspx?s=442ca660-fcf1-47c0-95a9-59707d6fd709

Hourly Data Report for August 16, 2019

TORONTO CITY
ONTARIO
Current Station Operator: ECCC - MSC

43°40'00.000" N
79°24'00.000" W
112.50 m
6158355
71508
XTO

Download Data

Hourly Data (August 2019)
Hourly Data Report for August 16, 2019
TIME
LST
Temp Definition
°C
Dew Point Definition
°C
Rel Hum Definition
%
Precip. Amount Definition
mm

Wind Dir Definition
10's deg

Wind Spd Definition
km/h
Visibility Definition
km
Stn Press Definition
kPa
Hmdx Definition


Wind Chill Definition


Weather Definition


00:00 19.7 12.6 63 0.0       100.11     LegendNANA
01:00 19.7 12.3 62 0.0       100.12     LegendNANA
02:00 18.9 12.4 66 0.0       100.09     LegendNANA
03:00 18.4 12.3 67 0.0       100.11     LegendNANA
04:00 18.2 11.9 67 0.0       100.12     LegendNANA
05:00 18.3 11.7 65 0.0       100.12     LegendNANA
06:00 18.0 11.7 67 0.0       100.12     LegendNANA
07:00 18.8 12.2 66 0.0       100.13     LegendNANA
08:00 20.7 13.2 62 0.0       100.18     LegendNANA
09:00 21.9 13.9 61 0.0       100.20 25   LegendNANA
10:00 22.5 13.3 56 0.0       100.23 25   LegendNANA
11:00 22.7 14.6 61 0.0       100.22 26   LegendNANA
12:00 23.3 15.6 62 0.0       100.18 28   LegendNANA
13:00 23.8 15.9 61 0.0       100.17 28   LegendNANA
14:00 23.2 16.2 65 0.0       100.13 28   LegendNANA
15:00 23.1 16.1 64 0.0       100.11 28   LegendNANA
16:00 23.7 15.9 62 0.0       100.04 28   LegendNANA
17:00 22.9 16.0 65 0.0       100.01 28   LegendNANA
18:00 22.8 15.4 63 0.0       99.98 27   LegendNANA
19:00 21.6 16.7 74 0.0       100.00 27   LegendNANA
20:00 21.0 17.6 81 0.0       100.03 27   LegendNANA
21:00 20.7 17.6 83 0.0       100.04 26   LegendNANA
22:00 20.3 17.3 83 0.0       100.02 26   LegendNANA
23:00 20.7 17.6 83 0.0       100.05 26   LegendNANA

Notes on Data Quality.

Legend

  • E = Estimated
  • M = Missing
  • NA = Not Available*
  • [empty] = Indicates an unobserved value
Date modified: